TimeEDT,TemperatureF,Dew PointF,Humidity,Sea Level PressureIn,VisibilityMPH,Wind Direction,Wind SpeedMPH,Gust SpeedMPH,PrecipitationIn,Events,Conditions,WindDirDegrees,DateUTC
12:53 AM,44.1,39.0,82,29.85,10.0,ENE,4.6,-,N/A,,Overcast,60,2013-10-23 04:53:00
1:53 AM,43.0,37.9,82,29.82,10.0,East,4.6,-,0.00,Rain,Light Rain,90,2013-10-23 05:53:00
2:53 AM,43.0,39.0,86,29.81,10.0,Calm,Calm,-,0.00,Rain,Light Rain,0,2013-10-23 06:53:00
3:53 AM,43.0,39.0,86,29.78,6.0,East,5.8,-,0.05,Rain,Light Rain,80,2013-10-23 07:53:00
4:53 AM,42.1,39.0,89,29.77,10.0,NE,6.9,-,0.01,,Overcast,40,2013-10-23 08:53:00
5:33 AM,42.8,39.2,87,29.77,4.0,NNE,10.4,-,0.05,Rain,Rain,20,2013-10-23 09:33:00
5:53 AM,42.1,39.9,92,29.77,8.0,NNE,11.5,-,0.05,Rain,Light Rain,30,2013-10-23 09:53:00
6:18 AM,42.8,39.2,87,29.78,7.0,North,11.5,-,0.00,Rain,Light Rain,360,2013-10-23 10:18:00
6:51 AM,39.2,37.4,93,29.80,6.0,North,16.1,-,0.03,Rain,Light Rain,10,2013-10-23 10:51:00
6:53 AM,39.0,36.0,89,29.81,6.0,North,16.1,21.9,0.03,Rain,Light Rain,10,2013-10-23 10:53:00
7:17 AM,37.4,35.6,93,29.81,10.0,NNE,12.7,-,0.00,Rain,Light Rain,20,2013-10-23 11:17:00
7:53 AM,37.9,36.0,93,29.84,7.0,North,10.4,-,0.01,Rain,Light Rain,360,2013-10-23 11:53:00
8:10 AM,37.4,35.6,93,29.85,8.0,North,9.2,-,0.00,Rain,Light Rain,360,2013-10-23 12:10:00
8:53 AM,37.0,35.1,93,29.89,7.0,North,6.9,-,0.01,Rain,Light Rain,350,2013-10-23 12:53:00
9:53 AM,37.9,36.0,93,29.91,10.0,NW,8.1,-,0.01,Rain,Light Rain,320,2013-10-23 13:53:00
10:07 AM,39.2,35.6,87,29.91,10.0,NNW,8.1,-,0.00,Rain,Light Rain,330,2013-10-23 14:07:00
10:53 AM,39.9,37.0,89,29.95,10.0,NW,10.4,-,0.00,,Overcast,310,2013-10-23 14:53:00
11:27 AM,41.0,37.4,87,29.95,10.0,WNW,10.4,18.4,N/A,,Overcast,300,2013-10-23 15:27:00
11:53 AM,42.1,36.0,79,29.96,10.0,NW,11.5,-,N/A,,Overcast,310,2013-10-23 15:53:00
12:53 PM,43.0,36.0,76,29.98,10.0,NW,10.4,-,N/A,,Overcast,310,2013-10-23 16:53:00
1:53 PM,45.0,36.0,71,29.98,10.0,WNW,11.5,-,N/A,,Overcast,300,2013-10-23 17:53:00
2:09 PM,44.6,35.6,71,29.97,10.0,WNW,10.4,-,N/A,,Overcast,290,2013-10-23 18:09:00
2:53 PM,45.0,35.1,68,29.99,10.0,WNW,13.8,-,N/A,,Overcast,290,2013-10-23 18:53:00
3:53 PM,46.9,33.1,59,29.99,10.0,WNW,10.4,-,N/A,,Overcast,290,2013-10-23 19:53:00
4:53 PM,46.9,30.0,52,30.00,10.0,West,6.9,-,N/A,,Overcast,270,2013-10-23 20:53:00
5:53 PM,46.0,28.9,51,30.02,10.0,West,5.8,-,N/A,,Overcast,260,2013-10-23 21:53:00
6:53 PM,45.0,27.0,49,30.03,10.0,West,5.8,-,N/A,,Overcast,280,2013-10-23 22:53:00
7:53 PM,42.1,28.0,58,30.05,10.0,West,4.6,-,N/A,,Mostly Cloudy,270,2013-10-23 23:53:00
8:53 PM,37.9,28.9,70,30.06,10.0,Calm,Calm,-,N/A,,Partly Cloudy,0,2013-10-24 00:53:00
9:53 PM,35.1,30.0,82,30.07,10.0,Calm,Calm,-,N/A,,Partly Cloudy,0,2013-10-24 01:53:00
10:53 PM,37.9,34.0,86,30.07,10.0,Calm,Calm,-,N/A,,Overcast,0,2013-10-24 02:53:00
11:53 PM,39.9,33.1,77,30.08,10.0,West,8.1,-,0.00,Rain,Light Rain,270,2013-10-24 03:53:00